| time (UTC) | temp C | wind direction | speed KPH | gust KPH | rain 1hr cm | rain 24hr cm | rain mn cm | humidity % | barometer mb |
| 20260906000504 | 20 | 340 | 1.6 | 8.0 | 0.00 | 0.00 | 0.00 | 53 | 1016.5 |
| 20260906000007 | 20 | 319 | 1.6 | 8.0 | 0.00 | 0.00 | 0.00 | 53 | 1016.5 |
| 20260905235506 | 20 | 281 | 3.2 | 11.3 | 0.00 | 0.00 | 0.00 | 53 | 1016.5 |
| 20260905235006 | 20 | 282 | 3.2 | 11.3 | 0.00 | 0.00 | 0.00 | 51 | 1016.6 |
| 20260905234510 | 20 | 308 | 3.2 | 9.7 | 0.00 | 0.00 | 0.00 | 51 | 1016.5 |
| 20260905234012 | 20 | 36 | 1.6 | 9.7 | 0.00 | 0.00 | 0.00 | 51 | 1016.6 |
| 20260905233512 | 21 | 285 | 3.2 | 9.7 | 0.00 | 0.00 | 0.00 | 50 | 1016.6 |
| 20260905233026 | 20 | 57 | 0.0 | 4.8 | 0.00 | 0.00 | 0.00 | 52 | 1016.6 |
| 20260905232519 | 20 | 173 | 1.6 | 6.4 | 0.00 | 0.00 | 0.00 | 52 | 1016.6 |
| 20260905232013 | 20 | 262 | 1.6 | 6.4 | 0.00 | 0.00 | 0.00 | 53 | 1016.6 |
| 20260905231504 | 20 | 37 | 3.2 | 8.0 | 0.00 | 0.00 | 0.00 | 55 | 1016.6 |
| 20260905231004 | 20 | 278 | 3.2 | 8.0 | 0.00 | 0.00 | 0.00 | 55 | 1016.6 |
| 20260905230503 | 20 | 288 | 1.6 | 6.4 | 0.00 | 0.00 | 0.00 | 59 | 1016.6 |
| 20260905230005 | 19 | 63 | 1.6 | 9.7 | 0.00 | 0.00 | 0.00 | 61 | 1016.6 |
| 20260905225504 | 19 | 120 | 3.2 | 9.7 | 0.00 | 0.00 | 0.00 | 62 | 1016.7 |
| 20260905225006 | 19 | 167 | 1.6 | 4.8 | 0.00 | 0.00 | 0.00 | 60 | 1016.7 |
| 20260905224513 | 19 | 313 | 0.0 | 4.8 | 0.00 | 0.00 | 0.00 | 59 | 1016.7 |
| 20260905224009 | 20 | 306 | 1.6 | 6.4 | 0.00 | 0.00 | 0.00 | 60 | 1016.9 |
| 20260905223507 | 19 | 350 | 3.2 | 6.4 | 0.00 | 0.00 | 0.00 | 55 | 1016.9 |
| 20260905223017 | 19 | 19 | 0.0 | 6.4 | 0.00 | 0.00 | 0.00 | 52 | 1017.0 |
| 20260905222512 | 18 | 122 | 1.6 | 11.3 | 0.00 | 0.00 | 0.00 | 56 | 1016.9 |
| 20260905222014 | 18 | 82 | 4.8 | 11.3 | 0.00 | 0.00 | 0.00 | 56 | 1017.0 |
| 20260905221523 | 19 | 70 | 3.2 | 6.4 | 0.00 | 0.00 | 0.00 | 56 | 1017.1 |
| 20260905221012 | 18 | 183 | 1.6 | 4.8 | 0.00 | 0.00 | 0.00 | 57 | 1017.1 |
| 20260905220504 | 18 | 302 | 1.6 | 6.4 | 0.00 | 0.00 | 0.00 | 58 | 1017.3 |
| 20260905220007 | 18 | 196 | 3.2 | 6.4 | 0.00 | 0.00 | 0.00 | 62 | 1017.4 |
| 20260905215506 | 18 | 144 | 1.6 | 9.7 | 0.00 | 0.00 | 0.00 | 64 | 1017.4 |
| 20260905215003 | 17 | 115 | 3.2 | 9.7 | 0.00 | 0.00 | 0.00 | 69 | 1017.4 |
| 20260905214508 | 17 | 153 | 3.2 | 6.4 | 0.00 | 0.00 | 0.00 | 70 | 1017.4 |
| 20260905214006 | 17 | 74 | 3.2 | 6.4 | 0.00 | 0.00 | 0.00 | 70 | 1017.5 |
| 20260905213510 | 17 | 113 | 3.2 | 6.4 | 0.00 | 0.00 | 0.00 | 69 | 1017.5 |
| 20260905213018 | 17 | 178 | 0.0 | 6.4 | 0.00 | 0.00 | 0.00 | 69 | 1017.5 |
| 20260905212510 | 17 | 161 | 1.6 | 6.4 | 0.00 | 0.00 | 0.00 | 70 | 1017.6 |
| 20260905212014 | 17 | 184 | 1.6 | 6.4 | 0.00 | 0.00 | 0.00 | 71 | 1017.6 |
| 20260905211518 | 17 | 90 | 3.2 | 6.4 | 0.00 | 0.00 | 0.00 | 70 | 1017.6 |
| 20260905211014 | 17 | 89 | 3.2 | 4.8 | 0.00 | 0.00 | 0.00 | 69 | 1017.7 |
| 20260905210515 | 17 | 184 | 1.6 | 6.4 | 0.00 | 0.00 | 0.00 | 69 | 1017.7 |
| 20260905210031 | 16 | 168 | 3.2 | 6.4 | 0.00 | 0.00 | 0.00 | 69 | 1017.7 |
| 20260905205514 | 17 | 152 | 3.2 | 4.8 | 0.00 | 0.00 | 0.00 | 68 | 1017.6 |
| 20260905205006 | 17 | 114 | 0.0 | 4.8 | 0.00 | 0.00 | 0.00 | 71 | 1017.7 |
| 20260905204510 | 17 | 148 | 3.2 | 6.4 | 0.00 | 0.00 | 0.00 | 67 | 1017.8 |
| 20260905204007 | 16 | 208 | 1.6 | 6.4 | 0.00 | 0.00 | 0.00 | 69 | 1017.7 |
| 20260905203505 | 16 | 213 | 0.0 | 4.8 | 0.00 | 0.00 | 0.00 | 68 | 1017.8 |
| 20260905203014 | 16 | 135 | 0.0 | 4.8 | 0.00 | 0.00 | 0.00 | 68 | 1017.8 |
| 20260905202506 | 16 | 69 | 1.6 | 4.8 | 0.00 | 0.00 | 0.00 | 68 | 1017.9 |
| 20260905202014 | 16 | 151 | 0.0 | 3.2 | 0.00 | 0.00 | 0.00 | 68 | 1017.9 |
| 20260905201517 | 16 | 181 | 1.6 | 3.2 | 0.00 | 0.00 | 0.00 | 68 | 1017.9 |
| 20260905201011 | 16 | 192 | 0.0 | 6.4 | 0.00 | 0.00 | 0.00 | 71 | 1017.9 |
| 20260905200514 | 16 | 171 | 0.0 | 6.4 | 0.00 | 0.00 | 0.00 | 70 | 1017.9 |
| 20260905200035 | 16 | 188 | 1.6 | 4.8 | 0.00 | 0.00 | 0.00 | 70 | 1017.9 |
| 20260905195513 | 16 | 135 | 3.2 | 4.8 | 0.00 | 0.00 | 0.00 | 69 | 1017.9 |
| 20260905195019 | 17 | 132 | 0.0 | 3.2 | 0.00 | 0.00 | 0.00 | 69 | 1018.0 |
| 20260905194529 | 16 | 207 | 0.0 | 8.0 | 0.00 | 0.00 | 0.00 | 71 | 1018.0 |
| 20260905194017 | 16 | 125 | 0.0 | 8.0 | 0.00 | 0.00 | 0.00 | 71 | 1018.1 |
| 20260905193506 | 16 | 155 | 4.8 | 8.0 | 0.00 | 0.00 | 0.00 | 70 | 1018.1 |
| 20260905193013 | 17 | 157 | 1.6 | 6.4 | 0.00 | 0.00 | 0.00 | 70 | 1018.1 |
| 20260905192510 | 17 | 154 | 3.2 | 11.3 | 0.00 | 0.00 | 0.00 | 68 | 1018.1 |
| 20260905192007 | 17 | 230 | 3.2 | 11.3 | 0.00 | 0.00 | 0.00 | 71 | 1018.1 |
| 20260905191514 | 17 | 235 | 3.2 | 6.4 | 0.00 | 0.00 | 0.00 | 68 | 1018.2 |
| 20260905191013 | 17 | 159 | 1.6 | 11.3 | 0.00 | 0.00 | 0.00 | 71 | 1018.2 |
| 20260905190512 | 16 | 160 | 6.4 | 11.3 | 0.00 | 0.00 | 0.00 | 70 | 1018.3 |
| 20260905190023 | 17 | 153 | 3.2 | 6.4 | 0.00 | 0.00 | 0.00 | 69 | 1018.2 |
| 20260905185511 | 17 | 181 | 1.6 | 6.4 | 0.00 | 0.00 | 0.00 | 70 | 1018.3 |
| 20260905185014 | 16 | 148 | 3.2 | 6.4 | 0.00 | 0.00 | 0.00 | 70 | 1018.4 |
| 20260905184534 | 15 | 123 | 1.6 | 6.4 | 0.00 | 0.00 | 0.00 | 72 | 1018.4 |
| 20260905184017 | 15 | 138 | 3.2 | 6.4 | 0.00 | 0.00 | 0.00 | 73 | 1018.5 |
| 20260905183517 | 16 | 192 | 1.6 | 8.0 | 0.00 | 0.00 | 0.00 | 73 | 1018.4 |
| 20260905183030 | 16 | 196 | 3.2 | 8.0 | 0.00 | 0.00 | 0.00 | 73 | 1018.4 |
| 20260905182514 | 16 | 201 | 1.6 | 4.8 | 0.00 | 0.00 | 0.00 | 73 | 1018.5 |
| 20260905182006 | 16 | 202 | 1.6 | 4.8 | 0.00 | 0.00 | 0.00 | 74 | 1018.6 |
| 20260905181513 | 15 | 132 | 0.0 | 8.0 | 0.00 | 0.00 | 0.00 | 73 | 1018.6 |
| 20260905181010 | 15 | 129 | 3.2 | 8.0 | 0.00 | 0.00 | 0.00 | 74 | 1018.7 |
| 20260905180513 | 15 | 152 | 1.6 | 8.0 | 0.00 | 0.00 | 0.00 | 74 | 1018.7 |
| 20260905180016 | 15 | 161 | 3.2 | 6.4 | 0.00 | 0.00 | 0.00 | 75 | 1018.7 |
| 20260905175512 | 15 | 148 | 1.6 | 4.8 | 0.00 | 0.00 | 0.00 | 74 | 1018.7 |
| 20260905175011 | 15 | 148 | 0.0 | 4.8 | 0.00 | 0.00 | 0.00 | 76 | 1018.7 |
| 20260905174534 | 15 | 86 | 0.0 | 4.8 | 0.00 | 0.00 | 0.00 | 73 | 1018.6 |
| 20260905174013 | 15 | 186 | 1.6 | 3.2 | 0.00 | 0.00 | 0.00 | 74 | 1018.5 |
| 20260905173515 | 15 | 82 | 1.6 | 4.8 | 0.00 | 0.00 | 0.00 | 72 | 1018.4 |
| 20260905173027 | 16 | 96 | 1.6 | 4.8 | 0.00 | 0.00 | 0.00 | 72 | 1018.4 |
| 20260905172517 | 15 | 195 | 1.6 | 4.8 | 0.00 | 0.00 | 0.00 | 73 | 1018.3 |
| 20260905172016 | 15 | 49 | 1.6 | 6.4 | 0.00 | 0.00 | 0.00 | 76 | 1018.3 |
| 20260905171529 | 15 | 136 | 0.0 | 6.4 | 0.00 | 0.00 | 0.00 | 77 | 1018.3 |
| 20260905171022 | 15 | 145 | 1.6 | 4.8 | 0.00 | 0.00 | 0.00 | 77 | 1018.3 |
| 20260905170510 | 15 | 284 | 1.6 | 3.2 | 0.00 | 0.00 | 0.00 | 75 | 1018.2 |
| 20260905170016 | 15 | 5 | 0.0 | 4.8 | 0.00 | 0.00 | 0.00 | 74 | 1018.2 |
| 20260905165508 | 15 | 360 | 1.6 | 4.8 | 0.00 | 0.00 | 0.00 | 74 | 1018.2 |
| 20260905165011 | 15 | 5 | 1.6 | 3.2 | 0.00 | 0.00 | 0.00 | 74 | 1018.2 |
| 20260905164522 | 14 | 94 | 1.6 | 4.8 | 0.00 | 0.00 | 0.00 | 76 | 1018.2 |
| 20260905164014 | 14 | 120 | 1.6 | 4.8 | 0.00 | 0.00 | 0.00 | 77 | 1018.1 |
| 20260905163515 | 14 | 134 | 0.0 | 3.2 | 0.00 | 0.00 | 0.00 | 78 | 1018.1 |
| 20260905163027 | 13 | 167 | 0.0 | 3.2 | 0.00 | 0.00 | 0.00 | 78 | 1018.2 |
| 20260905162514 | 13 | 158 | 0.0 | 3.2 | 0.00 | 0.00 | 0.00 | 79 | 1018.1 |
| 20260905162017 | 13 | 130 | 0.0 | 0.0 | 0.00 | 0.00 | 0.00 | 79 | 1018.1 |
| 20260905161530 | 13 | 136 | 0.0 | 0.0 | 0.00 | 0.00 | 0.00 | 79 | 1018.1 |
| 20260905161018 | 13 | 135 | 0.0 | 1.6 | 0.00 | 0.00 | 0.00 | 80 | 1018.1 |
| 20260905160520 | 13 | 115 | 0.0 | 1.6 | 0.00 | 0.00 | 0.00 | 80 | 1018.1 |
| 20260905160046 | 13 | 115 | 1.6 | 3.2 | 0.00 | 0.00 | 0.00 | 80 | 1018.1 |
| 20260905155518 | 13 | 22 | 1.6 | 3.2 | 0.00 | 0.00 | 0.00 | 81 | 1018.1 |
| 20260905155011 | 13 | 142 | 0.0 | 0.0 | 0.00 | 0.00 | 0.00 | 81 | 1018.1 |
| 20260905154518 | 12 | 142 | 0.0 | 0.0 | 0.00 | 0.00 | 0.00 | 82 | 1018.2 |
| 20260905154014 | 12 | 142 | 0.0 | 3.2 | 0.00 | 0.00 | 0.00 | 81 | 1018.1 |
| 20260905153514 | 12 | 142 | 0.0 | 3.2 | 0.00 | 0.00 | 0.00 | 82 | 1018.2 |
| 20260905153001 | 12 | 144 | 0.0 | 3.2 | 0.00 | 0.00 | 0.00 | 83 | 1018.2 |
| 20260905152502 | 12 | 146 | 1.6 | 4.8 | 0.00 | 0.00 | 0.00 | 83 | 1018.2 |
| 20260905152002 | 12 | 131 | 1.6 | 4.8 | 0.00 | 0.00 | 0.00 | 84 | 1018.2 |
| 20260905151505 | 12 | 193 | 1.6 | 3.2 | 0.00 | 0.00 | 0.00 | 84 | 1018.2 |
| 20260905151008 | 12 | 136 | 0.0 | 0.0 | 0.00 | 0.00 | 0.00 | 82 | 1018.2 |
| 20260905150507 | 12 | 113 | 0.0 | 0.0 | 0.00 | 0.00 | 0.00 | 83 | 1018.1 |
| 20260905150021 | 12 | 97 | 0.0 | 3.2 | 0.00 | 0.00 | 0.00 | 83 | 1018.1 |
| 20260905145510 | 12 | 107 | 0.0 | 4.8 | 0.00 | 0.00 | 0.00 | 84 | 1018.1 |
| 20260905145012 | 11 | 95 | 0.0 | 4.8 | 0.00 | 0.00 | 0.00 | 85 | 1018.1 |
| 20260905144537 | 11 | 86 | 3.2 | 4.8 | 0.00 | 0.00 | 0.00 | 85 | 1018.0 |
| 20260905144016 | 11 | 102 | 0.0 | 3.2 | 0.00 | 0.00 | 0.00 | 85 | 1017.9 |
| 20260905143511 | 11 | 103 | 0.0 | 0.0 | 0.00 | 0.00 | 0.00 | 86 | 1017.9 |
| 20260905143026 | 11 | 103 | 0.0 | 0.0 | 0.00 | 0.00 | 0.00 | 87 | 1017.9 |
| 20260905142513 | 11 | 103 | 0.0 | 0.0 | 0.00 | 0.00 | 0.00 | 87 | 1017.8 |
| 20260905142017 | 11 | 102 | 0.0 | 0.0 | 0.00 | 0.00 | 0.00 | 87 | 1017.7 |
| 20260905141505 | 11 | 102 | 0.0 | 0.0 | 0.00 | 0.00 | 0.00 | 87 | 1017.7 |
| 20260905141007 | 11 | 103 | 0.0 | 0.0 | 0.00 | 0.00 | 0.00 | 87 | 1017.7 |
| 20260905140505 | 11 | 102 | 0.0 | 0.0 | 0.00 | 0.00 | 0.00 | 87 | 1017.7 |
| 20260905140011 | 11 | 103 | 0.0 | 0.0 | 0.00 | 0.00 | 0.00 | 87 | 1017.5 |
| 20260905135507 | 11 | 102 | 0.0 | 0.0 | 0.00 | 0.00 | 0.00 | 87 | 1017.5 |
| 20260905135009 | 11 | 102 | 0.0 | 0.0 | 0.00 | 0.00 | 0.00 | 87 | 1017.5 |
| 20260905134518 | 11 | 102 | 0.0 | 0.0 | 0.00 | 0.00 | 0.00 | 87 | 1017.4 |
| 20260905134008 | 11 | 103 | 0.0 | 0.0 | 0.00 | 0.00 | 0.00 | 87 | 1017.4 |
| 20260905133512 | 11 | 102 | 0.0 | 0.0 | 0.00 | 0.00 | 0.00 | 87 | 1017.4 |
| 20260905133031 | 11 | 102 | 0.0 | 0.0 | 0.00 | 0.00 | 0.00 | 87 | 1017.5 |
| 20260905132517 | 10 | 103 | 0.0 | 0.0 | 0.00 | 0.00 | 0.00 | 88 | 1017.4 |
| 20260905132017 | 10 | 103 | 0.0 | 0.0 | 0.00 | 0.00 | 0.00 | 88 | 1017.4 |
| 20260905131542 | 10 | 102 | 0.0 | 0.0 | 0.00 | 0.00 | 0.00 | 88 | 1017.5 |
| 20260905131016 | 10 | 102 | 0.0 | 0.0 | 0.00 | 0.00 | 0.00 | 88 | 1017.5 |
| 20260905130515 | 10 | 102 | 0.0 | 0.0 | 0.00 | 0.00 | 0.00 | 88 | 1017.5 |
| 20260905130009 | 10 | 102 | 0.0 | 0.0 | 0.00 | 0.00 | 0.00 | 88 | 1017.5 |
| 20260905125506 | 10 | 102 | 0.0 | 0.0 | 0.00 | 0.00 | 0.00 | 88 | 1017.4 |
| 20260905125007 | 10 | 102 | 0.0 | 0.0 | 0.00 | 0.00 | 0.00 | 88 | 1017.5 |
| 20260905124515 | 10 | 102 | 0.0 | 0.0 | 0.00 | 0.00 | 0.00 | 88 | 1017.5 |
| 20260905124009 | 10 | 102 | 0.0 | 0.0 | 0.00 | 0.00 | 0.00 | 88 | 1017.4 |
| 20260905123510 | 10 | 102 | 0.0 | 0.0 | 0.00 | 0.00 | 0.00 | 88 | 1017.4 |
| 20260905123018 | 10 | 103 | 0.0 | 0.0 | 0.00 | 0.00 | 0.00 | 88 | 1017.4 |
| 20260905122512 | 10 | 102 | 0.0 | 0.0 | 0.00 | 0.00 | 0.00 | 88 | 1017.4 |
| 20260905122014 | 10 | 102 | 0.0 | 0.0 | 0.00 | 0.00 | 0.00 | 88 | 1017.3 |
| 20260905121523 | 10 | 103 | 0.0 | 0.0 | 0.00 | 0.00 | 0.00 | 89 | 1017.4 |
| 20260905121014 | 10 | 102 | 0.0 | 0.0 | 0.00 | 0.00 | 0.00 | 89 | 1017.4 |
| 20260905120519 | 10 | 103 | 0.0 | 0.0 | 0.00 | 0.00 | 0.00 | 89 | 1017.4 |
| 20260905120029 | 10 | 102 | 0.0 | 0.0 | 0.00 | 0.00 | 0.00 | 89 | 1017.4 |
| 20260905115514 | 10 | 102 | 0.0 | 0.0 | 0.00 | 0.00 | 0.00 | 89 | 1017.4 |
| 20260905115018 | 10 | 102 | 0.0 | 0.0 | 0.00 | 0.00 | 0.00 | 89 | 1017.4 |
| 20260905114512 | 10 | 102 | 0.0 | 0.0 | 0.00 | 0.00 | 0.00 | 89 | 1017.4 |
| 20260905114006 | 10 | 102 | 0.0 | 0.0 | 0.00 | 0.00 | 0.00 | 88 | 1017.3 |
| 20260905113509 | 10 | 102 | 0.0 | 0.0 | 0.00 | 0.00 | 0.00 | 89 | 1017.3 |
| 20260905113017 | 10 | 102 | 0.0 | 0.0 | 0.00 | 0.00 | 0.00 | 89 | 1017.3 |
| 20260905112510 | 10 | 103 | 0.0 | 0.0 | 0.00 | 0.00 | 0.00 | 88 | 1017.3 |
| 20260905112013 | 10 | 103 | 0.0 | 0.0 | 0.00 | 0.00 | 0.00 | 88 | 1017.3 |
| 20260905111523 | 10 | 103 | 0.0 | 0.0 | 0.00 | 0.00 | 0.00 | 88 | 1017.3 |
| 20260905111015 | 10 | 103 | 0.0 | 0.0 | 0.00 | 0.00 | 0.00 | 88 | 1017.2 |
| 20260905110515 | 10 | 103 | 0.0 | 0.0 | 0.00 | 0.00 | 0.00 | 89 | 1017.2 |
| 20260905110027 | 10 | 102 | 0.0 | 0.0 | 0.00 | 0.00 | 0.00 | 88 | 1017.2 |
| 20260905105514 | 10 | 102 | 0.0 | 0.0 | 0.00 | 0.00 | 0.00 | 88 | 1017.2 |
| 20260905105015 | 10 | 102 | 0.0 | 0.0 | 0.00 | 0.00 | 0.00 | 88 | 1017.2 |
| 20260905104529 | 10 | 103 | 0.0 | 0.0 | 0.00 | 0.00 | 0.00 | 88 | 1017.1 |
| 20260905104016 | 10 | 102 | 0.0 | 0.0 | 0.00 | 0.00 | 0.00 | 88 | 1017.1 |
| 20260905103519 | 10 | 103 | 0.0 | 0.0 | 0.00 | 0.00 | 0.00 | 88 | 1017.0 |
| 20260905103035 | 10 | 103 | 0.0 | 0.0 | 0.00 | 0.00 | 0.00 | 88 | 1017.0 |
| 20260905102509 | 10 | 103 | 0.0 | 0.0 | 0.00 | 0.00 | 0.00 | 88 | 1016.9 |
| 20260905102010 | 11 | 102 | 0.0 | 0.0 | 0.00 | 0.00 | 0.00 | 88 | 1016.9 |
| 20260905101518 | 11 | 102 | 0.0 | 0.0 | 0.00 | 0.00 | 0.00 | 88 | 1017.0 |
| 20260905101011 | 11 | 102 | 0.0 | 0.0 | 0.00 | 0.00 | 0.00 | 88 | 1016.9 |
| 20260905100511 | 11 | 102 | 0.0 | 0.0 | 0.00 | 0.00 | 0.00 | 89 | 1016.9 |
| 20260905100024 | 10 | 102 | 0.0 | 0.0 | 0.00 | 0.00 | 0.00 | 89 | 1016.8 |
| 20260905095516 | 10 | 102 | 0.0 | 0.0 | 0.00 | 0.00 | 0.00 | 89 | 1016.8 |
| 20260905095016 | 10 | 102 | 0.0 | 0.0 | 0.00 | 0.00 | 0.00 | 89 | 1016.8 |
| 20260905094529 | 11 | 103 | 0.0 | 0.0 | 0.00 | 0.00 | 0.00 | 88 | 1016.8 |
| 20260905094015 | 11 | 102 | 0.0 | 0.0 | 0.00 | 0.00 | 0.00 | 88 | 1016.8 |
| 20260905093516 | 11 | 102 | 0.0 | 0.0 | 0.00 | 0.00 | 0.00 | 88 | 1016.9 |
| 20260905093033 | 11 | 102 | 0.0 | 0.0 | 0.00 | 0.00 | 0.00 | 88 | 1016.9 |
| 20260905092516 | 11 | 102 | 0.0 | 0.0 | 0.00 | 0.00 | 0.00 | 88 | 1016.9 |
| 20260905092022 | 11 | 102 | 0.0 | 0.0 | 0.00 | 0.00 | 0.00 | 88 | 1016.9 |
| 20260905091535 | 11 | 103 | 0.0 | 0.0 | 0.00 | 0.00 | 0.00 | 88 | 1016.9 |
| 20260905091011 | 11 | 102 | 0.0 | 0.0 | 0.00 | 0.00 | 0.00 | 88 | 1016.8 |
| 20260905090510 | 11 | 102 | 0.0 | 0.0 | 0.00 | 0.00 | 0.00 | 88 | 1016.8 |
| 20260905090014 | 11 | 102 | 0.0 | 0.0 | 0.00 | 0.00 | 0.00 | 88 | 1016.8 |
| 20260905085503 | 11 | 103 | 0.0 | 0.0 | 0.00 | 0.00 | 0.00 | 88 | 1016.8 |
| 20260905085002 | 11 | 102 | 0.0 | 0.0 | 0.00 | 0.00 | 0.00 | 88 | 1016.8 |
| 20260905084503 | 11 | 102 | 0.0 | 0.0 | 0.00 | 0.00 | 0.00 | 87 | 1016.8 |
| 20260905084005 | 11 | 102 | 0.0 | 0.0 | 0.00 | 0.00 | 0.00 | 88 | 1016.7 |
| 20260905083505 | 11 | 103 | 0.0 | 0.0 | 0.00 | 0.00 | 0.00 | 87 | 1016.7 |
| 20260905083004 | 11 | 103 | 0.0 | 0.0 | 0.00 | 0.00 | 0.00 | 87 | 1016.7 |
| 20260905082506 | 11 | 102 | 0.0 | 0.0 | 0.00 | 0.00 | 0.00 | 87 | 1016.6 |
| 20260905082007 | 11 | 103 | 0.0 | 1.6 | 0.00 | 0.00 | 0.00 | 87 | 1016.5 |
| 20260905081512 | 11 | 102 | 0.0 | 3.2 | 0.00 | 0.00 | 0.00 | 86 | 1016.5 |
| 20260905081010 | 11 | 113 | 0.0 | 3.2 | 0.00 | 0.00 | 0.00 | 86 | 1016.6 |
| 20260905080510 | 11 | 113 | 0.0 | 1.6 | 0.00 | 0.00 | 0.00 | 87 | 1016.6 |
| 20260905080021 | 11 | 98 | 0.0 | 0.0 | 0.00 | 0.00 | 0.00 | 87 | 1016.6 |
| 20260905075510 | 11 | 98 | 0.0 | 0.0 | 0.00 | 0.00 | 0.00 | 86 | 1016.6 |
| 20260905075008 | 11 | 98 | 0.0 | 0.0 | 0.00 | 0.00 | 0.00 | 86 | 1016.6 |
| 20260905074517 | 11 | 98 | 0.0 | 1.6 | 0.00 | 0.00 | 0.00 | 86 | 1016.6 |
| 20260905074005 | 11 | 98 | 0.0 | 1.6 | 0.00 | 0.03 | 0.00 | 86 | 1016.6 |
| 20260905073501 | 11 | 98 | 0.0 | 0.0 | 0.00 | 0.03 | 0.00 | 86 | 1016.6 |
| 20260905073004 | 12 | 98 | 0.0 | 0.0 | 0.00 | 0.03 | 0.00 | 85 | 1016.5 |
| 20260905072508 | 12 | 98 | 0.0 | 0.0 | 0.00 | 0.03 | 0.00 | 85 | 1016.5 |
| 20260905072004 | 12 | 98 | 0.0 | 0.0 | 0.00 | 0.03 | 0.00 | 85 | 1016.5 |
| 20260905071511 | 12 | 98 | 0.0 | 0.0 | 0.00 | 0.03 | 0.00 | 85 | 1016.5 |
| 20260905071007 | 12 | 98 | 0.0 | 0.0 | 0.00 | 0.03 | 0.00 | 85 | 1016.3 |
| 20260905070508 | 12 | 98 | 0.0 | 0.0 | 0.00 | 0.03 | 0.00 | 84 | 1016.3 |
| 20260905070017 | 12 | 98 | 0.0 | 0.0 | 0.00 | 0.03 | 0.00 | 84 | 1016.3 |
| 20260905065510 | 12 | 98 | 0.0 | 0.0 | 0.00 | 0.05 | 0.03 | 84 | 1016.3 |
| 20260905065015 | 12 | 98 | 0.0 | 0.0 | 0.00 | 0.05 | 0.03 | 83 | 1016.2 |
| 20260905064520 | 12 | 98 | 0.0 | 0.0 | 0.00 | 0.05 | 0.03 | 83 | 1016.2 |
| 20260905064010 | 12 | 98 | 0.0 | 0.0 | 0.00 | 0.05 | 0.03 | 83 | 1016.2 |
| 20260905063509 | 12 | 98 | 0.0 | 0.0 | 0.00 | 0.05 | 0.03 | 83 | 1016.2 |
| 20260905063020 | 12 | 98 | 0.0 | 0.0 | 0.00 | 0.05 | 0.03 | 82 | 1016.1 |
| 20260905062514 | 13 | 98 | 0.0 | 0.0 | 0.00 | 0.05 | 0.03 | 81 | 1016.0 |
| 20260905062004 | 13 | 98 | 0.0 | 0.0 | 0.00 | 0.05 | 0.03 | 80 | 1016.0 |
| 20260905061508 | 13 | 98 | 0.0 | 3.2 | 0.00 | 0.05 | 0.03 | 79 | 1015.9 |
| 20260905061004 | 13 | 98 | 0.0 | 3.2 | 0.00 | 0.05 | 0.03 | 79 | 1015.9 |
| 20260905060508 | 13 | 98 | 0.0 | 3.2 | 0.00 | 0.05 | 0.03 | 79 | 1015.9 |
| 20260905060016 | 13 | 98 | 0.0 | 4.8 | 0.00 | 0.05 | 0.03 | 78 | 1015.9 |
| 20260905055510 | 14 | 100 | 0.0 | 4.8 | 0.00 | 0.05 | 0.03 | 78 | 1015.9 |
| 20260905055010 | 13 | 74 | 0.0 | 4.8 | 0.00 | 0.05 | 0.03 | 78 | 1015.8 |
| 20260905054519 | 13 | 96 | 0.0 | 0.0 | 0.00 | 0.05 | 0.03 | 79 | 1015.7 |
| 20260905054010 | 14 | 96 | 0.0 | 0.0 | 0.00 | 0.05 | 0.03 | 78 | 1015.7 |
| 20260905053513 | 14 | 96 | 0.0 | 0.0 | 0.00 | 0.05 | 0.03 | 78 | 1015.7 |
| 20260905053033 | 14 | 96 | 0.0 | 0.0 | 0.00 | 0.05 | 0.03 | 78 | 1015.8 |
| 20260905052513 | 14 | 96 | 0.0 | 0.0 | 0.00 | 0.05 | 0.03 | 77 | 1015.8 |
| 20260905052014 | 14 | 96 | 0.0 | 0.0 | 0.00 | 0.05 | 0.03 | 77 | 1015.8 |
| 20260905051523 | 14 | 96 | 0.0 | 0.0 | 0.00 | 0.05 | 0.03 | 77 | 1015.9 |
| 20260905051011 | 14 | 96 | 0.0 | 0.0 | 0.00 | 0.05 | 0.03 | 77 | 1015.9 |
| 20260905050507 | 14 | 96 | 0.0 | 0.0 | 0.00 | 0.05 | 0.03 | 76 | 1015.9 |
| 20260905050013 | 14 | 96 | 0.0 | 0.0 | 0.00 | 0.05 | 0.03 | 76 | 1015.8 |
| 20260905045508 | 14 | 96 | 0.0 | 0.0 | 0.00 | 0.05 | 0.03 | 76 | 1015.8 |
| 20260905045009 | 14 | 96 | 0.0 | 0.0 | 0.00 | 0.05 | 0.03 | 76 | 1015.8 |
| 20260905044520 | 14 | 96 | 0.0 | 0.0 | 0.00 | 0.05 | 0.03 | 76 | 1015.9 |
| 20260905044011 | 14 | 96 | 0.0 | 0.0 | 0.00 | 0.05 | 0.03 | 76 | 1015.9 |
| 20260905043516 | 15 | 96 | 0.0 | 0.0 | 0.00 | 0.05 | 0.03 | 75 | 1015.9 |
| 20260905043026 | 15 | 96 | 0.0 | 0.0 | 0.00 | 0.05 | 0.03 | 75 | 1015.9 |
| 20260905042513 | 15 | 96 | 0.0 | 0.0 | 0.00 | 0.05 | 0.03 | 74 | 1015.9 |
| 20260905042014 | 15 | 96 | 0.0 | 0.0 | 0.00 | 0.05 | 0.03 | 74 | 1015.9 |
| 20260905041525 | 15 | 96 | 0.0 | 0.0 | 0.00 | 0.05 | 0.03 | 73 | 1015.8 |
| 20260905041015 | 15 | 96 | 0.0 | 0.0 | 0.00 | 0.05 | 0.03 | 73 | 1015.8 |
| 20260905040514 | 15 | 96 | 0.0 | 0.0 | 0.00 | 0.05 | 0.03 | 73 | 1015.8 |
| 20260905040028 | 15 | 96 | 0.0 | 0.0 | 0.00 | 0.05 | 0.03 | 72 | 1015.8 |
| 20260905035515 | 15 | 96 | 0.0 | 0.0 | 0.00 | 0.05 | 0.03 | 71 | 1015.8 |
| 20260905035007 | 15 | 96 | 0.0 | 0.0 | 0.00 | 0.05 | 0.03 | 71 | 1015.8 |
| 20260905034514 | 15 | 96 | 0.0 | 0.0 | 0.00 | 0.05 | 0.03 | 70 | 1015.8 |
| 20260905034013 | 15 | 100 | 0.0 | 0.0 | 0.00 | 0.05 | 0.03 | 70 | 1015.7 |
| 20260905033508 | 15 | 100 | 0.0 | 0.0 | 0.00 | 0.05 | 0.03 | 70 | 1015.7 |
| 20260905033030 | 15 | 100 | 0.0 | 0.0 | 0.00 | 0.05 | 0.03 | 69 | 1015.7 |
| 20260905032512 | 16 | 99 | 0.0 | 0.0 | 0.00 | 0.05 | 0.03 | 69 | 1015.6 |
| 20260905032013 | 16 | 100 | 0.0 | 0.0 | 0.00 | 0.05 | 0.03 | 68 | 1015.6 |
| 20260905031526 | 16 | 105 | 0.0 | 0.0 | 0.00 | 0.05 | 0.03 | 68 | 1015.6 |
| 20260905031016 | 16 | 117 | 0.0 | 0.0 | 0.00 | 0.05 | 0.03 | 68 | 1015.5 |
| 20260905030514 | 16 | 117 | 0.0 | 0.0 | 0.00 | 0.05 | 0.03 | 67 | 1015.5 |
| 20260905030030 | 16 | 117 | 0.0 | 0.0 | 0.00 | 0.05 | 0.03 | 67 | 1015.4 |
| 20260905025513 | 16 | 117 | 0.0 | 0.0 | 0.00 | 0.05 | 0.03 | 66 | 1015.4 |
| 20260905025013 | 16 | 117 | 0.0 | 0.0 | 0.00 | 0.05 | 0.03 | 64 | 1015.4 |
| 20260905024528 | 16 | 117 | 0.0 | 0.0 | 0.00 | 0.05 | 0.03 | 64 | 1015.3 |
| 20260905024020 | 16 | 123 | 0.0 | 0.0 | 0.00 | 0.05 | 0.03 | 64 | 1015.3 |
| 20260905023508 | 16 | 123 | 0.0 | 0.0 | 0.00 | 0.05 | 0.03 | 63 | 1015.3 |
| 20260905023037 | 16 | 121 | 0.0 | 0.0 | 0.00 | 0.05 | 0.03 | 62 | 1015.3 |
| 20260905022512 | 17 | 117 | 0.0 | 0.0 | 0.00 | 0.05 | 0.03 | 63 | 1015.4 |
| 20260905022012 | 17 | 117 | 0.0 | 3.2 | 0.00 | 0.05 | 0.03 | 62 | 1015.4 |
| 20260905021526 | 17 | 129 | 0.0 | 3.2 | 0.00 | 0.05 | 0.03 | 62 | 1015.4 |
| 20260905021011 | 17 | 223 | 0.0 | 4.8 | 0.00 | 0.08 | 0.03 | 62 | 1015.4 |
| 20260905020518 | 17 | 220 | 1.6 | 4.8 | 0.00 | 0.08 | 0.03 | 60 | 1015.4 |
| 20260905020033 | 17 | 104 | 1.6 | 6.4 | 0.00 | 0.08 | 0.03 | 60 | 1015.3 |
| 20260905015515 | 17 | 123 | 3.2 | 9.7 | 0.00 | 0.08 | 0.03 | 60 | 1015.4 |
| 20260905015019 | 17 | 136 | 3.2 | 9.7 | 0.00 | 0.10 | 0.03 | 59 | 1015.3 |
| 20260905014530 | 17 | 121 | 4.8 | 9.7 | 0.00 | 0.10 | 0.03 | 59 | 1015.4 |
| 20260905014014 | 17 | 105 | 3.2 | 9.7 | 0.00 | 0.10 | 0.03 | 58 | 1015.3 |
| 20260905013514 | 18 | 106 | 1.6 | 4.8 | 0.00 | 0.10 | 0.03 | 57 | 1015.3 |
| 20260905013029 | 18 | 93 | 1.6 | 4.8 | 0.00 | 0.10 | 0.03 | 56 | 1015.2 |
| 20260905012518 | 18 | 79 | 1.6 | 4.8 | 0.00 | 0.10 | 0.03 | 56 | 1014.9 |
| 20260905012009 | 18 | 88 | 1.6 | 3.2 | 0.00 | 0.10 | 0.03 | 55 | 1014.7 |
| 20260905011520 | 18 | 82 | 0.0 | 8.0 | 0.00 | 0.10 | 0.03 | 55 | 1014.7 |
| 20260905011014 | 18 | 122 | 3.2 | 8.0 | 0.00 | 0.10 | 0.03 | 55 | 1014.7 |
| 20260905010513 | 18 | 109 | 1.6 | 11.3 | 0.00 | 0.10 | 0.03 | 56 | 1014.6 |
| 20260905010032 | 18 | 195 | 3.2 | 11.3 | 0.00 | 0.10 | 0.03 | 55 | 1014.5 |
| 20260905005513 | 19 | 121 | 3.2 | 9.7 | 0.00 | 0.10 | 0.03 | 54 | 1014.5 |
| 20260905005013 | 19 | 104 | 1.6 | 16.1 | 0.00 | 0.10 | 0.03 | 55 | 1014.5 |
| 20260905004505 | 19 | 92 | 3.2 | 16.1 | 0.00 | 0.10 | 0.03 | 53 | 1014.5 |
| 20260905004005 | 19 | 133 | 1.6 | 6.4 | 0.00 | 0.10 | 0.03 | 53 | 1014.5 |
| 20260905003508 | 19 | 167 | 1.6 | 6.4 | 0.00 | 0.10 | 0.03 | 57 | 1014.4 |
| 20260905003008 | 19 | 178 | 1.6 | 11.3 | 0.00 | 0.10 | 0.03 | 58 | 1014.4 |
| 20260905002508 | 19 | 213 | 3.2 | 12.9 | 0.00 | 0.10 | 0.03 | 56 | 1014.3 |
| 20260905002002 | 20 | 120 | 8.0 | 12.9 | 0.00 | 0.10 | 0.03 | 55 | 1014.3 |
| 20260905001503 | 20 | 114 | 1.6 | 8.0 | 0.00 | 0.10 | 0.03 | 50 | 1014.3 |
| 20260905001000 | 19 | 311 | 0.0 | 6.4 | 0.00 | 0.10 | 0.03 | 50 | 1014.2 |